sat.trackr.live / text

‹ back to catalog

STARLINK-32407

NORAD 62172 · 2024-225K

PAYLOAD ACTIVE UNKNOWN

§ Identity

Operator
Country
US
Launch date
2024-11-30
Launch site
AFWTR
Launch vehicle
Mass (kg)
RCS (m²)

Purposes: comms

External: N2YO · Heavens-Above · Gunter

§ Orbital elements

Epoch: 2026-05-24T21:54:31.397760Z

Period
96.11 min
Inclination
70.0019°
Eccentricity
0.0002586
Mean motion
14.98334901 rev/d
Perigee alt
570.2 km
Apogee alt
573.8 km
Semi-major
6,950.2 km
B*
2.1937e-4
RAAN
332.2207°
Arg perigee
263.7579°
Mean anomaly
96.3286°
Rev number
8,129

§ Raw data

STARLINK-324071 62172U 24225K   26144.91286340  .00002526  00000+0  21937-3 0  99922 62172  70.0019 332.2207 0002586 263.7579  96.3286 14.98334901 81292

JSON: /api/v1/satellites/62172 · /tle

For live sub-satellite position, see the globe view (requires WebGL).

§ Visibility from observer

Set your observer location to see the next 7 days of passes ≥ 10°. The values pass through the URL so the page stays shareable.

No JS? Fill the form by hand. The geolocation button needs JavaScript.